Location: Владивосток
(43.1151°N, 131.8856°E)
Time: 17:11:24
(UTC+10:00)

DUCHIFAT 1 - Pass Details

Date: 30 June 2022
Orbit: 580 x 596 km, 98.0° (Epoch: 09 August)

Event Time Altitude Azimuth Distance (km) Brightness Sun altitude
Rises 04:13:47 0° 7° (N) 2,841 ? -12.1°
Reaches altitude 10° 04:16:00 10° 2° (N) 1,937 ? -11.8°
Maximum altitude 04:20:03 48° 288° (WNW) 781 ? -11.4°
Enters shadow 04:23:15 15° 217° (SW) 1,604 ? -11.0°
